AAL915 KMIA-TNCA

Flight info

Callsign AAL915
Flight time 2h 20m
Altitude 35000
Route GWAVA2 URSUS UP406 BILSI UL795 DIBOK DIBOK2A
Aircraft A321/M-SDE3FGHIRWY/LB1

Departure

Time 2026-05-04 15:30
Airport Miami International Airport (KMIA)

Arrival

Time 2026-05-04 17:51
Airport Queen Beatrix International Airport (TNCA)
Time Latitude Longitude Altitude Speed Heading
2026-05-04 15:04 25.79840 -80.28130 15 ft 0 kts 183°
2026-05-04 15:17 25.79864 -80.28128 15 ft 3 kts 183°
2026-05-04 15:17 25.79882 -80.28125 16 ft 3 kts 199°
2026-05-04 15:18 25.79897 -80.28112 15 ft 3 kts 262°
2026-05-04 15:18 25.79898 -80.28104 15 ft 0 kts 275°
2026-05-04 15:22 25.79898 -80.28106 15 ft 0 kts 275°
2026-05-04 15:22 25.79900 -80.28132 15 ft 1 kts 277°
2026-05-04 15:23 25.79912 -80.28142 17 ft 4 kts 332°
2026-05-04 15:23 25.79947 -80.28147 15 ft 6 kts 356°
2026-05-04 15:23 25.79992 -80.28150 15 ft 7 kts 352°
2026-05-04 15:23 25.80035 -80.28178 15 ft 8 kts 304°
2026-05-04 15:24 25.80036 -80.28309 15 ft 9 kts 268°
2026-05-04 15:24 25.80029 -80.28471 15 ft 11 kts 267°
2026-05-04 15:25 25.80026 -80.28560 15 ft 12 kts 267°
2026-05-04 15:25 25.80022 -80.28650 16 ft 12 kts 267°
2026-05-04 15:25 25.80018 -80.28743 16 ft 12 kts 267°
2026-05-04 15:26 25.80010 -80.28947 16 ft 14 kts 267°
2026-05-04 15:26 25.80005 -80.29060 16 ft 15 kts 267°
2026-05-04 15:26 25.79996 -80.29299 16 ft 16 kts 268°
2026-05-04 15:27 25.79990 -80.29430 15 ft 18 kts 267°
2026-05-04 15:27 25.79978 -80.29713 14 ft 19 kts 267°
2026-05-04 15:28 25.79967 -80.30006 13 ft 10 kts 268°
2026-05-04 15:28 25.79977 -80.30079 14 ft 10 kts 298°
2026-05-04 15:28 25.80065 -80.30118 14 ft 8 kts 50°
2026-05-04 15:29 25.80073 -80.30078 13 ft 0 kts 87°
2026-05-04 15:30 25.80146 -80.28342 15 ft 161 kts 87°
2026-05-04 15:30 25.79507 -80.24563 1694 ft 182 kts 139°
2026-05-04 15:31 25.77365 -80.22772 2544 ft 203 kts 140°
2026-05-04 15:31 25.76270 -80.21726 2946 ft 212 kts 136°
2026-05-04 15:32 25.72330 -80.19082 3844 ft 255 kts 181°
2026-05-04 15:32 25.68552 -80.19044 4822 ft 278 kts 179°
2026-05-04 15:33 25.64722 -80.19425 6275 ft 280 kts 189°
2026-05-04 15:34 25.59036 -80.17884 8238 ft 296 kts 152°
2026-05-04 15:34 25.57261 -80.16695 8860 ft 300 kts 152°
2026-05-04 15:34 25.53640 -80.14288 10113 ft 308 kts 153°
2026-05-04 15:35 25.49716 -80.11713 10468 ft 349 kts 153°
2026-05-04 15:35 25.47585 -80.10317 10785 ft 361 kts 153°
2026-05-04 15:35 25.45408 -80.08885 11321 ft 366 kts 154°
2026-05-04 15:36 25.40989 -80.05970 12415 ft 373 kts 154°
2026-05-04 15:36 25.38748 -80.04492 12992 ft 377 kts 155°
2026-05-04 15:36 25.36483 -80.03001 13548 ft 380 kts 155°
2026-05-04 15:37 25.34201 -80.01497 14084 ft 384 kts 155°
2026-05-04 15:37 25.31898 -79.99980 14590 ft 387 kts 155°
2026-05-04 15:37 25.29578 -79.98456 15093 ft 389 kts 155°
2026-05-04 15:37 25.27269 -79.96944 15569 ft 393 kts 155°
2026-05-04 15:38 25.24920 -79.95379 16066 ft 396 kts 154°
2026-05-04 15:38 25.22580 -79.93747 16571 ft 399 kts 153°
2026-05-04 15:38 25.20241 -79.92072 17072 ft 402 kts 152°
2026-05-04 15:38 25.17893 -79.90373 17560 ft 405 kts 152°
2026-05-04 15:39 25.15531 -79.88666 18035 ft 407 kts 152°
2026-05-04 15:39 25.13146 -79.86956 18487 ft 410 kts 153°
2026-05-04 15:39 25.08318 -79.83530 19299 ft 415 kts 153°
2026-05-04 15:40 25.05875 -79.81807 19697 ft 418 kts 153°
2026-05-04 15:40 25.03414 -79.80074 20101 ft 421 kts 153°
2026-05-04 15:40 25.00938 -79.78328 20499 ft 424 kts 153°
2026-05-04 15:40 24.98446 -79.76567 20914 ft 427 kts 152°
2026-05-04 15:41 24.95937 -79.74794 21286 ft 430 kts 152°
2026-05-04 15:41 24.93415 -79.73015 21686 ft 432 kts 152°
2026-05-04 15:41 24.90874 -79.71227 22072 ft 435 kts 152°
2026-05-04 15:41 24.88321 -79.69427 22452 ft 437 kts 152°
2026-05-04 15:42 24.85753 -79.67611 22821 ft 440 kts 152°
2026-05-04 15:42 24.83172 -79.65787 23181 ft 442 kts 152°
2026-05-04 15:42 24.80575 -79.63955 23540 ft 444 kts 152°
2026-05-04 15:42 24.77964 -79.62118 23836 ft 447 kts 152°
2026-05-04 15:43 24.75337 -79.60272 24135 ft 449 kts 152°
2026-05-04 15:43 24.72696 -79.58415 24437 ft 451 kts 152°
2026-05-04 15:43 24.70043 -79.56551 24734 ft 453 kts 152°
2026-05-04 15:43 24.67380 -79.54681 25023 ft 456 kts 152°
2026-05-04 15:44 24.64700 -79.52801 25311 ft 458 kts 152°
2026-05-04 15:44 24.62008 -79.50912 25595 ft 460 kts 152°
2026-05-04 15:44 24.59307 -79.49015 25898 ft 462 kts 152°
2026-05-04 15:44 24.56595 -79.47113 26178 ft 464 kts 152°
2026-05-04 15:45 24.53905 -79.45227 26455 ft 466 kts 152°
2026-05-04 15:45 24.51168 -79.43306 26747 ft 468 kts 152°
2026-05-04 15:45 24.48419 -79.41376 27033 ft 470 kts 152°
2026-05-04 15:45 24.45656 -79.39441 27317 ft 472 kts 152°
2026-05-04 15:46 24.42882 -79.37504 27594 ft 474 kts 153°
2026-05-04 15:46 24.40092 -79.35559 27871 ft 476 kts 153°
2026-05-04 15:46 24.37288 -79.33606 28145 ft 478 kts 153°
2026-05-04 15:46 24.34474 -79.31641 28417 ft 481 kts 153°
2026-05-04 15:47 24.31649 -79.29666 28690 ft 483 kts 153°
2026-05-04 15:47 24.28814 -79.27679 28950 ft 485 kts 152°
2026-05-04 15:47 24.25978 -79.25660 29206 ft 487 kts 152°
2026-05-04 15:47 24.23144 -79.23618 29470 ft 489 kts 152°
2026-05-04 15:48 24.20296 -79.21556 29729 ft 491 kts 152°
2026-05-04 15:48 24.17441 -79.19486 29989 ft 494 kts 152°
2026-05-04 15:48 24.11637 -79.15433 30463 ft 495 kts 155°
2026-05-04 15:49 24.08647 -79.13579 30747 ft 493 kts 157°
2026-05-04 15:49 24.05634 -79.11818 31106 ft 490 kts 158°
2026-05-04 15:49 24.02625 -79.10093 31462 ft 488 kts 158°
2026-05-04 15:49 23.99628 -79.08366 31816 ft 486 kts 158°
2026-05-04 15:50 23.96651 -79.06617 32121 ft 485 kts 157°
2026-05-04 15:50 23.93694 -79.04845 32452 ft 484 kts 157°
2026-05-04 15:50 23.90754 -79.03056 32781 ft 483 kts 157°
2026-05-04 15:50 23.87826 -79.01263 33112 ft 482 kts 157°
2026-05-04 15:51 23.84910 -78.99479 33446 ft 480 kts 157°
2026-05-04 15:51 23.81999 -78.97706 33772 ft 478 kts 158°
2026-05-04 15:51 23.79094 -78.95946 34095 ft 477 kts 158°
2026-05-04 15:51 23.76194 -78.94197 34356 ft 476 kts 158°
2026-05-04 15:52 23.73297 -78.92456 34599 ft 475 kts 159°
2026-05-04 15:52 23.70401 -78.90716 34828 ft 475 kts 159°
2026-05-04 15:52 23.67508 -78.88977 35008 ft 476 kts 159°
2026-05-04 15:52 23.64612 -78.87236 35044 ft 475 kts 159°
2026-05-04 15:53 23.58872 -78.83782 35064 ft 474 kts 159°
2026-05-04 15:53 23.53095 -78.80306 35065 ft 474 kts 159°
2026-05-04 15:54 23.47317 -78.76837 35065 ft 474 kts 159°
2026-05-04 15:54 23.41537 -78.73372 35065 ft 474 kts 159°
2026-05-04 15:55 23.35757 -78.69917 35066 ft 474 kts 159°
2026-05-04 15:55 23.29972 -78.66452 35052 ft 474 kts 159°
2026-05-04 15:56 23.24190 -78.62987 35070 ft 474 kts 159°
2026-05-04 15:56 23.18410 -78.59531 35079 ft 474 kts 159°
2026-05-04 15:57 23.12626 -78.56085 35084 ft 474 kts 159°
2026-05-04 15:57 23.06846 -78.52636 35085 ft 474 kts 159°
2026-05-04 15:58 23.01067 -78.49194 35084 ft 474 kts 159°
2026-05-04 15:58 22.95291 -78.45752 35071 ft 473 kts 159°
2026-05-04 15:59 22.89518 -78.42314 35079 ft 473 kts 159°
2026-05-04 15:59 22.83743 -78.38887 35083 ft 473 kts 159°
2026-05-04 16:00 22.77973 -78.35464 35085 ft 473 kts 159°
2026-05-04 16:00 22.72200 -78.32046 35086 ft 473 kts 159°
2026-05-04 16:01 22.66469 -78.28655 35057 ft 472 kts 159°
2026-05-04 16:01 22.60703 -78.25249 35072 ft 472 kts 159°
2026-05-04 16:02 22.54938 -78.21838 35079 ft 472 kts 159°
2026-05-04 16:03 22.46294 -78.16733 35078 ft 472 kts 159°
2026-05-04 16:03 22.40536 -78.13335 35076 ft 472 kts 159°
2026-05-04 16:04 22.34775 -78.09941 35083 ft 471 kts 159°
2026-05-04 16:04 22.26131 -78.04857 35059 ft 472 kts 159°
2026-05-04 16:05 22.20359 -78.01466 35062 ft 472 kts 159°
2026-05-04 16:06 22.11697 -77.96386 35064 ft 473 kts 159°
2026-05-04 16:07 22.00130 -77.89610 35053 ft 473 kts 158°
2026-05-04 16:08 21.88664 -77.82610 35072 ft 481 kts 149°
2026-05-04 16:09 21.75389 -77.71724 35078 ft 481 kts 149°
2026-05-04 16:10 21.64720 -77.63038 35067 ft 480 kts 149°
2026-05-04 16:11 21.54103 -77.54375 35078 ft 478 kts 149°
2026-05-04 16:12 21.38233 -77.41483 35068 ft 476 kts 149°
2026-05-04 16:13 21.27708 -77.32954 35057 ft 475 kts 149°
2026-05-04 16:14 21.17150 -77.24439 35068 ft 475 kts 149°
2026-05-04 16:16 21.04861 -77.14531 35069 ft 474 kts 149°
2026-05-04 16:17 20.91690 -77.03941 35058 ft 474 kts 149°
2026-05-04 16:18 20.81158 -76.95476 35063 ft 473 kts 149°
2026-05-04 16:19 20.67988 -76.84923 35044 ft 473 kts 148°
2026-05-04 16:20 20.54796 -76.74380 35046 ft 474 kts 148°
2026-05-04 16:22 20.41563 -76.63836 35061 ft 475 kts 148°
2026-05-04 16:23 20.25724 -76.51192 35056 ft 475 kts 148°
2026-05-04 16:25 20.09885 -76.38578 35074 ft 473 kts 148°
2026-05-04 16:26 19.91447 -76.23930 35073 ft 472 kts 147°
2026-05-04 16:28 19.78313 -76.13533 35073 ft 470 kts 147°
2026-05-04 16:29 19.60011 -75.99065 35070 ft 469 kts 147°
2026-05-04 16:31 19.46914 -75.88750 35070 ft 469 kts 147°
2026-05-04 16:32 19.31186 -75.76389 35064 ft 469 kts 147°
2026-05-04 16:33 19.20693 -75.68150 35051 ft 470 kts 147°
2026-05-04 16:34 19.12801 -75.61970 35057 ft 471 kts 147°
2026-05-04 16:35 18.96983 -75.49608 35068 ft 472 kts 147°
2026-05-04 16:36 18.89101 -75.43459 35070 ft 472 kts 147°
2026-05-04 16:37 18.81145 -75.37253 35055 ft 473 kts 147°
2026-05-04 16:38 18.70580 -75.29035 35056 ft 474 kts 147°
2026-05-04 16:39 18.57312 -75.18722 35063 ft 474 kts 147°
2026-05-04 16:40 18.46458 -75.10871 35057 ft 473 kts 150°
2026-05-04 16:41 18.32741 -75.01274 35067 ft 474 kts 149°
2026-05-04 16:43 18.19088 -74.91597 35062 ft 473 kts 149°
2026-05-04 16:43 18.10921 -74.85846 35062 ft 473 kts 149°
2026-05-04 16:45 17.94519 -74.74317 35065 ft 473 kts 149°
2026-05-04 16:46 17.80869 -74.64714 35061 ft 472 kts 149°
2026-05-04 16:47 17.69949 -74.57065 35063 ft 471 kts 149°
2026-05-04 16:48 17.59044 -74.49437 35059 ft 471 kts 149°
2026-05-04 16:49 17.48144 -74.41817 35061 ft 471 kts 149°
2026-05-04 16:50 17.37250 -74.34210 35056 ft 471 kts 149°
2026-05-04 16:51 17.29082 -74.28507 35057 ft 470 kts 149°
2026-05-04 16:52 17.18222 -74.20950 35054 ft 470 kts 149°
2026-05-04 16:53 17.10043 -74.15272 35051 ft 470 kts 149°
2026-05-04 16:54 16.99159 -74.07702 35053 ft 470 kts 149°
2026-05-04 16:55 16.82828 -73.96381 35050 ft 469 kts 149°
2026-05-04 16:56 16.69221 -73.86975 35043 ft 469 kts 149°
2026-05-04 16:57 16.61057 -73.81332 35049 ft 469 kts 149°
2026-05-04 16:58 16.50206 -73.73838 35043 ft 469 kts 149°
2026-05-04 17:00 16.34106 -73.62221 35031 ft 472 kts 140°
2026-05-04 17:01 16.21969 -73.50667 35032 ft 473 kts 140°
2026-05-04 17:02 16.12235 -73.41435 35031 ft 473 kts 140°
2026-05-04 17:03 16.04929 -73.34518 35037 ft 474 kts 140°
2026-05-04 17:03 15.97624 -73.27602 35036 ft 474 kts 140°
2026-05-04 17:04 15.87899 -73.18407 35027 ft 475 kts 140°
2026-05-04 17:05 15.78124 -73.09180 35033 ft 475 kts 140°
2026-05-04 17:06 15.70799 -73.02271 35031 ft 474 kts 140°
2026-05-04 17:07 15.65085 -72.96889 35015 ft 475 kts 140°
2026-05-04 17:07 15.59396 -72.91537 35015 ft 475 kts 139°
2026-05-04 17:08 15.52039 -72.84621 35026 ft 476 kts 139°
2026-05-04 17:09 15.47141 -72.80008 35032 ft 475 kts 139°
2026-05-04 17:09 15.42241 -72.75409 35031 ft 475 kts 139°
2026-05-04 17:10 15.29989 -72.63916 35015 ft 476 kts 140°
2026-05-04 17:11 15.25074 -72.59312 35010 ft 477 kts 139°
2026-05-04 17:12 15.17729 -72.52428 35021 ft 477 kts 139°
2026-05-04 17:13 15.05436 -72.40932 35013 ft 477 kts 139°
2026-05-04 17:14 14.95574 -72.31724 35011 ft 478 kts 140°
2026-05-04 17:15 14.88159 -72.24818 35013 ft 478 kts 139°
2026-05-04 17:16 14.78277 -72.15609 35008 ft 478 kts 139°
2026-05-04 17:17 14.68404 -72.06415 35019 ft 477 kts 139°
2026-05-04 17:18 14.58527 -71.97254 35010 ft 478 kts 139°
2026-05-04 17:19 14.48640 -71.88077 35011 ft 477 kts 139°
2026-05-04 17:20 14.38762 -71.78917 35011 ft 477 kts 139°
2026-05-04 17:20 14.33861 -71.74377 34563 ft 469 kts 139°
2026-05-04 17:20 14.31442 -71.72139 34155 ft 466 kts 139°
2026-05-04 17:21 14.26646 -71.67701 33207 ft 460 kts 139°
2026-05-04 17:21 14.21920 -71.63330 32290 ft 453 kts 139°
2026-05-04 17:22 14.19611 -71.61201 31856 ft 450 kts 139°
2026-05-04 17:22 14.17256 -71.59027 31405 ft 447 kts 139°
2026-05-04 17:23 14.10375 -71.52676 29994 ft 443 kts 139°
2026-05-04 17:23 14.08087 -71.50562 29507 ft 440 kts 139°
2026-05-04 17:23 14.03562 -71.46386 28671 ft 433 kts 139°
2026-05-04 17:24 14.01326 -71.44327 28218 ft 430 kts 139°
2026-05-04 17:24 13.94682 -71.38197 26969 ft 424 kts 139°
2026-05-04 17:25 13.92495 -71.36178 26605 ft 421 kts 139°
2026-05-04 17:25 13.88157 -71.32182 25884 ft 414 kts 139°
2026-05-04 17:26 13.83910 -71.28287 25269 ft 405 kts 139°
2026-05-04 17:26 13.77694 -71.22576 24158 ft 397 kts 138°
2026-05-04 17:27 13.73603 -71.18809 23401 ft 392 kts 138°
2026-05-04 17:27 13.70716 -71.16154 22819 ft 387 kts 138°
2026-05-04 17:28 13.66742 -71.12505 22042 ft 379 kts 138°
2026-05-04 17:29 13.60923 -71.07157 20854 ft 369 kts 138°
2026-05-04 17:29 13.55275 -71.01977 19820 ft 356 kts 138°
2026-05-04 17:30 13.49826 -70.96985 18786 ft 343 kts 138°
2026-05-04 17:31 13.46309 -70.93768 18145 ft 334 kts 137°
2026-05-04 17:31 13.41171 -70.89058 16812 ft 330 kts 137°
2026-05-04 17:32 13.37764 -70.85938 15973 ft 327 kts 137°
2026-05-04 17:33 13.32732 -70.81343 14856 ft 319 kts 137°
2026-05-04 17:33 13.31099 -70.79852 14472 ft 318 kts 137°
2026-05-04 17:34 13.26182 -70.75356 13331 ft 312 kts 137°
2026-05-04 17:34 13.24569 -70.73881 12990 ft 308 kts 136°
2026-05-04 17:35 13.19800 -70.69530 11806 ft 304 kts 137°
2026-05-04 17:35 13.16715 -70.66716 11344 ft 290 kts 136°
2026-05-04 17:35 13.15222 -70.65354 11110 ft 284 kts 136°
2026-05-04 17:36 13.13746 -70.64005 10874 ft 283 kts 136°
2026-05-04 17:36 13.12287 -70.62668 10642 ft 279 kts 136°
2026-05-04 17:36 13.10837 -70.61339 10410 ft 281 kts 136°
2026-05-04 17:36 13.09380 -70.60006 10180 ft 279 kts 136°
2026-05-04 17:37 13.07924 -70.58677 9962 ft 281 kts 136°
2026-05-04 17:37 13.06467 -70.57348 9827 ft 278 kts 136°
2026-05-04 17:37 13.05033 -70.56041 9701 ft 274 kts 136°
2026-05-04 17:37 13.03606 -70.54742 9571 ft 274 kts 136°
2026-05-04 17:38 13.02171 -70.53437 9434 ft 276 kts 136°
2026-05-04 17:38 13.00748 -70.52147 9312 ft 271 kts 136°
2026-05-04 17:38 12.99338 -70.50874 9188 ft 269 kts 136°
2026-05-04 17:38 12.97938 -70.49606 9084 ft 268 kts 136°
2026-05-04 17:39 12.95152 -70.47078 8747 ft 265 kts 137°
2026-05-04 17:39 12.93774 -70.45826 8546 ft 265 kts 137°
2026-05-04 17:39 12.92412 -70.44590 8349 ft 265 kts 137°
2026-05-04 17:40 12.91016 -70.43322 8139 ft 271 kts 137°
2026-05-04 17:40 12.89609 -70.42046 7936 ft 268 kts 138°
2026-05-04 17:40 12.88213 -70.40782 7726 ft 270 kts 138°
2026-05-04 17:40 12.86804 -70.39504 7517 ft 269 kts 138°
2026-05-04 17:41 12.85420 -70.38249 7226 ft 265 kts 139°
2026-05-04 17:41 12.84010 -70.37049 6963 ft 261 kts 147°
2026-05-04 17:41 12.82490 -70.36071 6693 ft 257 kts 148°
2026-05-04 17:41 12.80955 -70.35096 6250 ft 261 kts 148°
2026-05-04 17:42 12.79422 -70.34124 6008 ft 256 kts 148°
2026-05-04 17:42 12.77915 -70.33169 5637 ft 256 kts 148°
2026-05-04 17:42 12.76392 -70.32206 5280 ft 255 kts 147°
2026-05-04 17:42 12.74910 -70.31271 5160 ft 245 kts 147°
2026-05-04 17:43 12.73486 -70.30372 5037 ft 236 kts 147°
2026-05-04 17:43 12.72118 -70.29503 4917 ft 227 kts 147°
2026-05-04 17:43 12.70794 -70.28662 4700 ft 222 kts 147°
2026-05-04 17:43 12.69493 -70.27837 4479 ft 216 kts 147°
2026-05-04 17:44 12.68239 -70.27045 4292 ft 210 kts 146°
2026-05-04 17:44 12.67007 -70.26266 4036 ft 207 kts 145°
2026-05-04 17:44 12.65790 -70.25495 3753 ft 205 kts 144°
2026-05-04 17:44 12.64574 -70.24726 3435 ft 205 kts 144°
2026-05-04 17:45 12.63380 -70.23973 3266 ft 196 kts 144°
2026-05-04 17:45 12.62254 -70.23262 3126 ft 185 kts 143°
2026-05-04 17:45 12.61154 -70.22566 3054 ft 186 kts 143°
2026-05-04 17:45 12.60056 -70.21869 3007 ft 186 kts 143°
2026-05-04 17:46 12.58956 -70.21170 3004 ft 186 kts 143°
2026-05-04 17:46 12.57899 -70.20419 3007 ft 183 kts 130°
2026-05-04 17:46 12.57072 -70.19443 2961 ft 179 kts 129°
2026-05-04 17:46 12.56221 -70.18514 2808 ft 180 kts 131°
2026-05-04 17:47 12.55351 -70.17588 2714 ft 182 kts 130°
2026-05-04 17:47 12.54486 -70.16667 2638 ft 182 kts 130°
2026-05-04 17:47 12.53667 -70.15683 2480 ft 185 kts 118°
2026-05-04 17:47 12.53221 -70.14485 2270 ft 175 kts 103°
2026-05-04 17:48 12.52943 -70.13314 2035 ft 164 kts 103°
2026-05-04 17:48 12.52683 -70.12219 1820 ft 152 kts 102°
2026-05-04 17:48 12.52441 -70.11200 1647 ft 144 kts 103°
2026-05-04 17:48 12.52211 -70.10230 1467 ft 139 kts 103°
2026-05-04 17:49 12.51980 -70.09261 1280 ft 141 kts 103°
2026-05-04 17:49 12.51750 -70.08296 1102 ft 139 kts 102°
2026-05-04 17:49 12.51522 -70.07337 922 ft 139 kts 102°
2026-05-04 17:49 12.51294 -70.06379 757 ft 138 kts 101°
2026-05-04 17:50 12.51069 -70.05432 577 ft 137 kts 104°
2026-05-04 17:50 12.50845 -70.04476 392 ft 139 kts 103°
2026-05-04 17:50 12.50613 -70.03517 220 ft 140 kts 104°
2026-05-04 17:50 12.50383 -70.02561 47 ft 137 kts 101°
2026-05-04 17:51 12.50195 -70.01745 43 ft 96 kts 103°
2026-05-04 17:51 12.50076 -70.01253 49 ft 46 kts 104°
2026-05-04 17:51 12.50040 -70.01104 49 ft 8 kts 103°
2026-05-04 17:51 12.50029 -70.01052 50 ft 7 kts 97°
2026-05-04 17:52 12.50049 -70.01016 48 ft 6 kts 27°
2026-05-04 17:52 12.50097 -70.01004 49 ft 9 kts 13°
2026-05-04 17:52 12.50169 -70.00986 47 ft 12 kts 13°
2026-05-04 17:52 12.50236 -70.00980 45 ft 10 kts 359°
2026-05-04 17:53 12.50285 -70.00972 47 ft 4 kts 13°
2026-05-04 17:53 12.50316 -70.00965 46 ft 4 kts 13°
2026-05-04 17:53 12.50328 -70.00961 43 ft 0 kts 13°